Regional Weather Roundup
Issued by NWS

Home | Current Version | Previous Version | Graphics & Text | Print | Product List | Glossary On
Versions: 1 2 3 4 5 6 7 8 9 10 11 12 13 14 15 16 17 18 19 20 21 22 23 24 25 26 27 28 29 30 31 32 33 34 35 36 37 38 39 40 41 42 43 44 45 46 47 48 49 50
000
ASUS43 KTOP 031308
RWRKS

WEATHER ROUNDUP FOR KANSAS
NATIONAL WEATHER SERVICE GOODLAND KS
800 AM CDT MON AUG 03 2015

NOTE:  "FAIR" INDICATES FEW OR NO CLOUDS BELOW 12,000 FEET WITH NO
SIGNIFICANT WEATHER AND/OR OBSTRUCTIONS TO VISIBILITY.

KSZ001>006-013>018-027>032-041>047-031400-
NORTHWEST KANSAS

CITY           SKY/WX    TMP DP  RH WIND       PRES   REMARKS
GOODLAND       MOSUNNY   64  60  87 CALM      30.03R
HAYS           SUNNY     72  63  73 NE6       29.95R
HILL CITY      SUNNY     69  63  81 CALM      29.97R
RUSSELL        MOSUNNY   71  68  90 CALM      29.94R
$$

KSZ061>065-074>080-084>089-031400-
SOUTHWEST KANSAS

CITY           SKY/WX    TMP DP  RH WIND       PRES   REMARKS
DODGE CITY     PTSUNNY   69  65  86 S7        29.97R
ELKHART          N/A     69  61  76 W6          N/A
GARDEN CITY    MOSUNNY   69  65  86 S3        29.97R
GREAT BEND     SUNNY     70  64  83 S6        29.94R
LIBERAL        CLOUDY    70  63  78 S8        29.99R
PRATT          MOSUNNY   72  64  78 CALM      29.96S
$$

KSZ066>073-081>083-090>101-031400-
SOUTHEAST KANSAS

CITY           SKY/WX    TMP DP  RH WIND       PRES   REMARKS
CHANUTE        SUNNY     73  68  84 S5        29.95R
COFFEYVILLE    SUNNY     73  68  84 S3        29.95R
HUTCHINSON     SUNNY     73  67  81 SE6       29.94R
MEDICINE LODGE   N/A     73  68  84 VRB5      29.94R
NEWTON         SUNNY     72  63  73 S8        29.97S
PARSONS        SUNNY     73  68  84 CALM      29.96R
WICHITA INTL   PTSUNNY   74  67  78 SE10      29.95R
WICHITA JABRA  SUNNY     75  66  73 S9        29.95S
WICHITA MCCONL MOSUNNY   74  64  72 SE9       29.95S
WINFIELD       MOSUNNY   74  68  81 SE6       29.97R
$$

KSZ007>012-019>026-033>040-048>060-102>105-031400-
NORTHEAST KANSAS

CITY           SKY/WX    TMP DP  RH WIND       PRES   REMARKS
CONCORDIA      SUNNY     72  66  81 NW3       29.93R
EMPORIA        SUNNY     73  66  78 S9        29.93S
LAWRENCE       SUNNY     73  69  87 SE3       29.92S
MANHATTAN      SUNNY     75  69  81 SW6       29.91S
MARYSVILLE     MOSUNNY   73  72  94 S3        29.92R
OLATHE IND     SUNNY     73  67  81 S3        29.94R
OLATHE EXE     SUNNY     73  67  81 S3        29.93R
SALINA         SUNNY     74  68  81 NW3       29.93R
TOPEKA BILLARD SUNNY     76  69  79 CALM      29.92R
TOPEKA FORBES  SUNNY     75  68  78 S7        29.92S
$$



USA.gov is the U.S. government's official web portal to all federal, state and local government web resources and services.